Volver al catálogo

FENGYUN 1C DEB

ActivoPO
NORAD 43358·DEBRIS·🇨🇳 China

Lanzado May 10, 1999 desde Taiyuan Satellite Launch Center

Loading…

Próximos Pases (próximas 24 horas)

TLE

ActualizadoSource: Space-Track

Época: Sep 14, 2026, 04:59 UTC

1 43358U 99025EYP 26257.20790229  .00001228  00000-0  15532-2 0  9992
2 43358  98.6929 344.0250 0363058 225.8267 131.2496 13.41018609574222

Sigue FENGYUN 1C DEB en tiempo real con AllMySat

Download on the App Store